This demonstration page uses our WeatherBlox Daily Observations layout. Learn more.

Left ArrowRight Arrow

39.92423, -83.80882

Hourly Observations for February 12, 2022

Temp ( °F °C ) Dew Point ( °F °C ) Humidity (%) Winds ( mph kmh ) Pressure ( in mb ) Visibility ( mi km ) Precip ( " mm )
12:34 am 00:34 Mostly Cloudy 37 3 37 3 100 100 WSW 13 20 29.93 1014 10 16 0.00 0.00
12:42 am 00:42 Cloudy 37 3 37 3 100 100 W 16 26 29.93 1014 10 16 0.00 0.00
12:56 am 00:56 Cloudy 37 2.8 37 2.8 100 100 W 16 26 29.91 1013 10 16 0.00 0.00
1:56 am 01:56 Cloudy 36 2.2 34 1.1 93 93 W 17 28 29.94 1014 10 16 0.00 0.00
2:56 am 02:56 Cloudy 34 1.1 31 -0.6 89 89 W 21 33 29.98 1015 10 16 0.00 0.00
3:56 am 03:56 Cloudy 31 -0.6 27 -2.8 85 85 WNW 20 31 30.01 1016 10 16 0.00 0.00
4:56 am 04:56 Cloudy 30 -1.1 26 -3.3 85 85 W 13 20 30.05 1018 10 16 0.00 0.00
5:56 am 05:56 Cloudy 30 -1.1 27 -2.8 88 88 W 14 22 30.09 1019 10 16 0.00 0.00
6:56 am 06:56 Cloudy 30 -1.1 27 -2.8 88 88 W 10 17 30.11 1020 10 16 0.00 0.00
7:46 am 07:46 Cloudy 28 -2 27 -3 93 93 WNW 15 24 30.17 1022 10 16 0.00 0.00
7:56 am 07:56 Cloudy 29 -1.7 27 -2.8 92 92 WNW 13 20 30.15 1021 10 16 0.00 0.00
8:56 am 08:56 Cloudy with Light Snow 29 -1.7 27 -2.8 92 92 WNW 9 15 30.19 1022 9 14 0.00 0.00
9:23 am 09:23 Cloudy with Light Snow 28 -2 27 -3 93 93 NW 10 17 30.23 1024 7 11 0.00 0.00
9:56 am 09:56 Cloudy with Light Snow 28 -2.2 28 -2.2 100 100 NW 10 17 30.22 1023 9 14 0.00 0.00
10:18 am 10:18 Cloudy with Light Snow 28 -2 25 -4 86 86 WNW 10 17 30.24 1024 9 14 0.00 0.00
10:56 am 10:56 Cloudy with Light Snow 28 -2.2 25 -3.9 88 88 NNW 8 13 30.24 1024 9 14 0.00 0.00
11:12 am 11:12 Cloudy with Light Snow 27 -3 25 -4 93 93 NW 9 15 30.28 1025 9 14 0.00 0.00
11:56 am 11:56 Cloudy with Light Snow 27 -2.8 25 -3.9 92 92 NNW 7 11 30.25 1025 9 14 0.00 0.00
12:41 pm 12:41 Cloudy with Light Snow 27 -3 23 -5 86 86 NW 8 13 30.29 1026 9 14 0.00 0.00
12:56 pm 12:56 Cloudy with Light Snow 27 -2.8 24 -4.4 89 89 WNW 9 15 30.25 1025 9 14 0.00 0.00
1:56 pm 13:56 Cloudy with Light Snow 27 -2.8 24 -4.4 89 89 WNW 12 19 30.24 1024 8 13 0.00 0.00
2:56 pm 14:56 Cloudy with Light Snow 28 -2.2 21 -6.1 75 75 NW 12 19 30.24 1024 9 14 0.00 0.00
3:36 pm 15:36 Cloudy with Light Snow 27 -3 19 -7 74 74 NW 12 19 30.28 1025 9 14 0.00 0.00
3:56 pm 15:56 Cloudy with Light Snow 27 -2.8 21 -6.1 78 78 NW 12 19 30.25 1025 9 14 0.00 0.00
4:19 pm 16:19 Cloudy with Light Snow 27 -3 21 -6 80 80 NW 10 17 30.28 1025 9 14 0.00 0.00
4:56 pm 16:56 Cloudy with Light Snow 26 -3.3 20 -6.7 78 78 NW 9 15 30.26 1025 8 13 0.00 0.00
5:29 pm 17:29 Cloudy with Light Snow 27 -3 19 -7 74 74 NW 10 17 30.29 1026 9 14 0.00 0.00
5:56 pm 17:56 Cloudy with Light Snow 25 -3.9 19 -7.2 78 78 NW 10 17 30.27 1025 9 14 0.00 0.00
6:56 pm 18:56 Cloudy with Light Snow 25 -3.9 19 -7.2 78 78 NW 8 13 30.29 1026 9 14 0.00 0.00
7:16 pm 19:16 Cloudy with Light Snow 25 -4 19 -7 80 80 NW 8 13 30.32 1027 9 14 0.00 0.00
7:56 pm 19:56 Cloudy with Light Snow 24 -4.4 21 -6.1 88 88 NNW 9 15 30.30 1026 7 11 0.00 0.00
8:56 pm 20:56 Cloudy with Light Snow 24 -4.4 19 -7.2 81 81 WNW 9 15 30.30 1026 9 14 0.00 0.00
9:56 pm 21:56 Cloudy with Light Snow 23 -5 19 -7.2 85 85 NNW 10 17 30.31 1027 9 14 0.00 0.00
10:56 pm 22:56 Cloudy with Light Snow 22 -5.6 18 -7.8 85 85 NW 10 17 30.32 1027 9 14 0.00 0.00
11:23 pm 23:23 Cloudy with Light Snow 21 -6 18 -8 86 86 NW 10 17 30.35 1028 9 14 0.00 0.00
11:56 pm 23:56 Cloudy with Light Snow 21 -6.1 16 -8.9 81 81 NW 8 13 30.31 1027 9 14 0.00 0.00

Powered by AerisWeather